When you browse on this site, cookies collect data to enhance your experience and personalize the content and advertising you see.
Visit our Privacy Policy to learn more. By continuing to use the site, you agree to this use of cookies and data.
  • în România
  • Lista ţărilor
  • Pe 7 zile
  • Temperatura apei
  • Hartă satelitară
  • Meteo pe hartă
  • Widget-uri
  • user-avatar
    Intrare

    Meteo pe oră la Arnieres-sur-Iton

    Astăzi, 16 Februarie, Sâmbătă

    Timp Temperatura Precipitaţii Vânt Presiune Umiditate
    00:00 +5°C° 0 mm 2 m/s 756 mmHg 83%
    01:00 +5°C° 0 mm 2 m/s 756 mmHg 83%
    02:00 +5°C° 0 mm 2 m/s 756 mmHg 83%
    03:00 +4°C° 0 mm 2 m/s 756 mmHg 83%
    04:00 +4°C° 0 mm 2 m/s 756 mmHg 84%
    05:00 +4°C° 0 mm 2 m/s 756 mmHg 84%
    06:00 +3°C° 0 mm 3 m/s 756 mmHg 85%
    07:00 +4°C° 0 mm 3 m/s 756 mmHg 83%
    08:00 +5°C° 0 mm 3 m/s 756 mmHg 80%
    09:00 +7°C° 0 mm 3 m/s 756 mmHg 78%
    10:00 +8°C° 0 mm 3 m/s 756 mmHg 74%
    11:00 +10°C° 0 mm 3 m/s 756 mmHg 70%
    12:00 +12°C° 0 mm 3 m/s 756 mmHg 66%
    13:00 +12°C° 0 mm 3 m/s 756 mmHg 66%
    14:00 +13°C° 0 mm 3 m/s 755 mmHg 66%
    15:00 +13°C° 0 mm 3 m/s 755 mmHg 66%
    16:00 +12°C° 0 mm 3 m/s 755 mmHg 73%
    17:00 +10°C° 0 mm 3 m/s 755 mmHg 80%
    18:00 +8°C° 0 mm 3 m/s 754 mmHg 87%
    19:00 +8°C° 0 mm 3 m/s 754 mmHg 88%
    20:00 +7°C° 0 mm 3 m/s 754 mmHg 88%
    21:00 +7°C° 0 mm 3 m/s 754 mmHg 89%
    22:00 +5°C° 0 mm 3 m/s 753 mmHg 88%
    23:00 +5°C° 0 mm 3 m/s 753 mmHg 88%

    Mâine, 17 Februarie, Duminică

    Timp Temperatura Precipitaţii Vânt Presiune Umiditate
    00:00 +5°C° 0 mm 3 m/s 753 mmHg 87%
    01:00 +5°C° 0 mm 3 m/s 753 mmHg 85%
    02:00 +5°C° 0 mm 4 m/s 752 mmHg 83%
    03:00 +4°C° 0 mm 4 m/s 752 mmHg 80%
    04:00 +4°C° 0 mm 4 m/s 751 mmHg 78%
    05:00 +4°C° 0 mm 4 m/s 751 mmHg 75%
    06:00 +3°C° 0 mm 5 m/s 751 mmHg 72%
    07:00 +5°C° 0 mm 5 m/s 751 mmHg 70%
    08:00 +4°C° 0 mm 6 m/s 751 mmHg 67%
    09:00 +5°C° 0 mm 6 m/s 751 mmHg 65%
    10:00 +8°C° 0 mm 6 m/s 751 mmHg 63%
    11:00 +9°C° 0 mm 6 m/s 751 mmHg 61%
    12:00 +11°C° 0 mm 6 m/s 751 mmHg 59%
    13:00 +11°C° 0 mm 6 m/s 751 mmHg 60%
    14:00 +13°C° 0 mm 5 m/s 751 mmHg 61%
    15:00 +13°C° 0 mm 5 m/s 750 mmHg 61%
    16:00 +11°C° 0 mm 4 m/s 750 mmHg 67%
    17:00 +10°C° 0 mm 4 m/s 751 mmHg 72%
    18:00 +8°C° 0 mm 3 m/s 751 mmHg 78%
    19:00 +7°C° 0 mm 4 m/s 751 mmHg 78%
    20:00 +6°C° 0 mm 4 m/s 751 mmHg 79%
    21:00 +6°C° 0 mm 4 m/s 751 mmHg 80%
    22:00 +7°C° 0 mm 3 m/s 751 mmHg 80%
    23:00 +5°C° 0 mm 3 m/s 751 mmHg 81%

    Poimâine, 18 Februarie, Luni

    Timp Temperatura Precipitaţii Vânt Presiune Umiditate
    00:00 +5°C° 0 mm 3 m/s 750 mmHg 81%
    01:00 +5°C° 0 mm 3 m/s 750 mmHg 84%
    02:00 +4°C° 0 mm 3 m/s 750 mmHg 87%
    03:00 +4°C° 0 mm 3 m/s 750 mmHg 90%
    04:00 +5°C° 0 mm 2 m/s 750 mmHg 91%
    05:00 +4°C° 0 mm 2 m/s 750 mmHg 92%
    06:00 +4°C° 0 mm 2 m/s 750 mmHg 93%
    07:00 +5°C° 0 mm 2 m/s 750 mmHg 90%
    08:00 +5°C° 0 mm 3 m/s 750 mmHg 87%
    09:00 +7°C° 0 mm 3 m/s 750 mmHg 84%
    10:00 +8°C° 0 mm 3 m/s 750 mmHg 79%
    11:00 +10°C° 0 mm 4 m/s 750 mmHg 74%
    12:00 +11°C° 0 mm 4 m/s 750 mmHg 69%
    13:00 +11°C° 0 mm 4 m/s 750 mmHg 69%
    14:00 +12°C° 0 mm 4 m/s 750 mmHg 69%
    15:00 +12°C° 0 mm 4 m/s 750 mmHg 68%
    16:00 +11°C° 0 mm 3 m/s 750 mmHg 75%
    17:00 +9°C° 0 mm 3 m/s 750 mmHg 81%
    18:00 +8°C° 0 mm 2 m/s 750 mmHg 88%
    19:00 +8°C° 0 mm 2 m/s 750 mmHg 89%
    20:00 +8°C° 0 mm 2 m/s 751 mmHg 90%
    21:00 +7°C° 0 mm 2 m/s 751 mmHg 91%
    22:00 +7°C° 0.2 mm 2 m/s 751 mmHg 93%
    23:00 +7°C° 0.2 mm 2 m/s 751 mmHg 94%

    19 Februarie, Marţi

    Timp Temperatura Precipitaţii Vânt Presiune Umiditate
    00:00 +8°C° 0.2 mm 1 m/s 751 mmHg 96%
    01:00 +8°C° 0.2 mm 1 m/s 751 mmHg 96%
    02:00 +8°C° 0.2 mm 1 m/s 751 mmHg 96%
    03:00 +8°C° 0.2 mm 1 m/s 751 mmHg 97%
    04:00 +7°C° 0 mm 1 m/s 751 mmHg 96%
    05:00 +7°C° 0 mm 1 m/s 751 mmHg 96%
    06:00 +6°C° 0 mm 1 m/s 752 mmHg 95%
    07:00 +7°C° 0 mm 1 m/s 752 mmHg 93%
    08:00 +7°C° 0 mm 1 m/s 753 mmHg 90%
    09:00 +8°C° 0 mm 1 m/s 753 mmHg 87%
    10:00 +8°C° 0 mm 2 m/s 753 mmHg 80%
    11:00 +9°C° 0 mm 2 m/s 753 mmHg 73%
    12:00 +12°C° 0 mm 2 m/s 753 mmHg 65%
    13:00 +12°C° 0 mm 2 m/s 753 mmHg 63%
    14:00 +12°C° 0 mm 2 m/s 753 mmHg 62%
    15:00 +12°C° 0 mm 2 m/s 753 mmHg 60%
    16:00 +10°C° 0 mm 2 m/s 753 mmHg 65%
    17:00 +8°C° 0 mm 2 m/s 753 mmHg 71%
    18:00 +8°C° 0 mm 1 m/s 753 mmHg 77%
    19:00 +7°C° 0 mm 1 m/s 754 mmHg 79%
    20:00 +6°C° 0 mm 2 m/s 754 mmHg 80%
    21:00 +6°C° 0 mm 2 m/s 754 mmHg 82%
    22:00 +5°C° 0 mm 2 m/s 754 mmHg 83%
    23:00 +5°C° 0 mm 2 m/s 754 mmHg 84%

    20 Februarie, Miercuri

    Timp Temperatura Precipitaţii Vânt Presiune Umiditate
    00:00 +4°C° 0 mm 2 m/s 754 mmHg 84%
    01:00 +4°C° 0 mm 2 m/s 754 mmHg 86%
    02:00 +4°C° 0 mm 2 m/s 754 mmHg 87%
    03:00 +4°C° 0 mm 2 m/s 754 mmHg 89%
    04:00 +4°C° 0 mm 2 m/s 754 mmHg 90%
    05:00 +4°C° 0 mm 2 m/s 754 mmHg 91%
    06:00 +4°C° 0 mm 2 m/s 754 mmHg 93%
    07:00 +4°C° 0 mm 3 m/s 754 mmHg 90%
    08:00 +5°C° 0 mm 3 m/s 754 mmHg 88%
    09:00 +7°C° 0 mm 3 m/s 755 mmHg 86%
    10:00 +9°C° 0 mm 3 m/s 755 mmHg 81%
    11:00 +11°C° 0 mm 3 m/s 755 mmHg 76%
    12:00 +12°C° 0 mm 3 m/s 755 mmHg 70%
    13:00 +13°C° 0 mm 3 m/s 755 mmHg 69%
    14:00 +13°C° 0 mm 4 m/s 755 mmHg 68%
    15:00 +13°C° 0 mm 4 m/s 755 mmHg 67%
    16:00 +12°C° 0 mm 3 m/s 755 mmHg 74%
    17:00 +10°C° 0 mm 3 m/s 755 mmHg 80%
    18:00 +9°C° 0 mm 2 m/s 755 mmHg 87%
    19:00 +8°C° 0 mm 2 m/s 755 mmHg 88%
    20:00 +8°C° 0 mm 2 m/s 755 mmHg 89%
    21:00 +8°C° 0 mm 2 m/s 755 mmHg 90%
    22:00 +7°C° 0 mm 2 m/s 755 mmHg 90%
    23:00 +7°C° 0 mm 2 m/s 755 mmHg 90%

    21 Februarie, Joi

    Timp Temperatura Precipitaţii Vânt Presiune Umiditate
    00:00 +7°C° 0 mm 2 m/s 756 mmHg 91%
    01:00 +7°C° 0 mm 2 m/s 756 mmHg 91%
    02:00 +6°C° 0 mm 2 m/s 756 mmHg 91%
    03:00 +6°C° 0 mm 2 m/s 755 mmHg 91%
    04:00 +6°C° 0 mm 2 m/s 756 mmHg 91%
    05:00 +6°C° 0 mm 2 m/s 756 mmHg 90%
    06:00 +6°C° 0 mm 2 m/s 756 mmHg 90%
    07:00 +7°C° 0 mm 2 m/s 756 mmHg 87%
    08:00 +9°C° 0 mm 1 m/s 756 mmHg 83%
    09:00 +10°C° 0 mm 1 m/s 757 mmHg 80%
    10:00 +10°C° 0 mm 2 m/s 757 mmHg 74%
    11:00 +13°C° 0 mm 2 m/s 757 mmHg 68%
    12:00 +14°C° 0 mm 2 m/s 757 mmHg 62%
    13:00 +15°C° 0 mm 2 m/s 756 mmHg 61%
    14:00 +15°C° 0 mm 2 m/s 756 mmHg 60%
    15:00 +15°C° 0 mm 2 m/s 756 mmHg 60%
    16:00 +14°C° 0 mm 2 m/s 756 mmHg 66%
    17:00 +12°C° 0 mm 2 m/s 756 mmHg 72%
    18:00 +10°C° 0 mm 2 m/s 756 mmHg 79%
    19:00 +9°C° 0 mm 2 m/s 756 mmHg 79%
    20:00 +9°C° 0 mm 2 m/s 756 mmHg 80%
    21:00 +8°C° 0 mm 2 m/s 756 mmHg 81%
    22:00 +8°C° 0 mm 2 m/s 757 mmHg 82%
    23:00 +7°C° 0 mm 2 m/s 757 mmHg 83%
    Arată mai mult